Time,TemperatureF,DewpointF,PressureIn,WindDirection,WindDirectionDegrees,WindSpeedMPH,WindSpeedGustMPH,Humidity,HourlyPrecipIn,Conditions,Clouds,dailyrainin,SoftwareType,DateUTC
2013-05-15 00:00:00,52.8,42.0,29.20,WSW,247,0.0,-999.0,68,0.00,,,0.00,Rainwise IP-100,2013-05-15 07:00:00,
2013-05-15 00:05:00,52.7,43.0,29.20,WSW,247,1.9,-999.0,69,0.00,,,0.00,Rainwise IP-100,2013-05-15 07:05:00,
2013-05-15 00:10:00,52.6,43.0,29.20,WSW,247,0.0,-999.0,69,0.00,,,0.00,Rainwise IP-100,2013-05-15 07:10:00,
2013-05-15 00:15:00,52.4,42.0,29.20,WSW,247,0.0,-999.0,70,0.00,,,0.00,Rainwise IP-100,2013-05-15 07:15:00,
2013-05-15 00:20:00,52.1,42.0,29.20,WSW,247,0.0,-999.0,70,0.00,,,0.00,Rainwise IP-100,2013-05-15 07:20:00,
2013-05-15 00:25:00,51.9,43.0,29.21,WSW,247,0.0,-999.0,71,0.00,,,0.00,Rainwise IP-100,2013-05-15 07:25:00,
2013-05-15 00:30:00,51.6,43.0,29.20,WSW,247,0.0,-999.0,72,0.00,,,0.00,Rainwise IP-100,2013-05-15 07:30:00,
2013-05-15 00:32:00,51.4,42.0,29.20,WSW,247,1.4,-999.0,72,0.00,,,0.00,Rainwise IP-100,2013-05-15 07:32:00,
2013-05-15 00:37:00,51.0,42.0,29.20,WSW,247,2.1,-999.0,71,0.00,,,0.00,Rainwise IP-100,2013-05-15 07:37:00,
2013-05-15 00:42:00,50.5,42.0,29.20,WSW,247,1.2,-999.0,72,0.00,,,0.00,Rainwise IP-100,2013-05-15 07:42:00,
2013-05-15 00:47:00,50.3,42.0,29.20,WSW,247,0.0,-999.0,72,0.00,,,0.00,Rainwise IP-100,2013-05-15 07:47:00,
2013-05-15 00:52:00,50.2,41.0,29.20,WSW,247,0.0,-999.0,72,0.00,,,0.00,Rainwise IP-100,2013-05-15 07:52:00,
2013-05-15 00:57:00,50.0,41.0,29.21,WSW,247,0.0,-999.0,72,0.00,,,0.00,Rainwise IP-100,2013-05-15 07:57:00,
2013-05-15 01:02:00,49.8,41.0,29.20,WSW,247,1.2,-999.0,73,0.00,,,0.00,Rainwise IP-100,2013-05-15 08:02:00,
2013-05-15 01:07:00,49.4,41.0,29.20,WSW,247,0.0,-999.0,73,0.00,,,0.00,Rainwise IP-100,2013-05-15 08:07:00,
2013-05-15 01:12:00,49.1,41.0,29.20,WSW,247,1.9,-999.0,74,0.00,,,0.00,Rainwise IP-100,2013-05-15 08:12:00,
2013-05-15 01:17:00,49.1,41.0,29.20,WSW,247,0.0,-999.0,75,0.00,,,0.00,Rainwise IP-100,2013-05-15 08:17:00,
2013-05-15 01:22:00,49.0,42.0,29.20,WSW,247,0.0,-999.0,76,0.00,,,0.00,Rainwise IP-100,2013-05-15 08:22:00,
2013-05-15 01:27:00,48.8,42.0,29.20,WSW,247,0.0,-999.0,76,0.00,,,0.00,Rainwise IP-100,2013-05-15 08:27:00,
2013-05-15 01:32:00,48.3,41.0,29.20,WSW,247,1.2,-999.0,76,0.00,,,0.00,Rainwise IP-100,2013-05-15 08:32:00,
2013-05-15 01:37:00,48.1,41.0,29.20,WSW,247,0.0,-999.0,76,0.00,,,0.00,Rainwise IP-100,2013-05-15 08:37:00,
2013-05-15 01:42:00,48.0,41.0,29.20,WSW,247,0.0,-999.0,76,0.00,,,0.00,Rainwise IP-100,2013-05-15 08:42:00,
2013-05-15 01:47:00,48.0,41.0,29.20,WSW,247,0.0,-999.0,77,0.00,,,0.00,Rainwise IP-100,2013-05-15 08:47:00,
2013-05-15 01:51:00,47.9,41.0,29.19,WSW,247,0.0,-999.0,77,0.00,,,0.00,Rainwise IP-100,2013-05-15 08:51:00,
2013-05-15 01:56:00,47.5,40.0,29.20,WSW,247,0.0,-999.0,77,0.00,,,0.00,Rainwise IP-100,2013-05-15 08:56:00,
2013-05-15 02:01:00,47.2,40.0,29.19,WSW,247,1.4,-999.0,77,0.00,,,0.00,Rainwise IP-100,2013-05-15 09:01:00,
2013-05-15 02:06:00,47.0,40.0,29.19,WSW,247,0.0,-999.0,77,0.00,,,0.00,Rainwise IP-100,2013-05-15 09:06:00,
2013-05-15 02:11:00,46.8,40.0,29.19,WSW,247,0.0,-999.0,78,0.00,,,0.00,Rainwise IP-100,2013-05-15 09:11:00,
2013-05-15 02:16:00,46.6,40.0,29.19,WSW,247,0.0,-999.0,78,0.00,,,0.00,Rainwise IP-100,2013-05-15 09:16:00,
2013-05-15 02:21:00,46.4,39.0,29.19,WSW,247,0.0,-999.0,79,0.00,,,0.00,Rainwise IP-100,2013-05-15 09:21:00,
2013-05-15 02:26:00,46.2,39.0,29.20,WSW,247,1.2,-999.0,79,0.00,,,0.00,Rainwise IP-100,2013-05-15 09:26:00,
2013-05-15 02:31:00,46.1,39.0,29.19,WSW,247,0.0,-999.0,79,0.00,,,0.00,Rainwise IP-100,2013-05-15 09:31:00,
2013-05-15 02:36:00,46.0,39.0,29.19,WSW,247,1.4,-999.0,79,0.00,,,0.00,Rainwise IP-100,2013-05-15 09:36:00,
2013-05-15 02:41:00,45.7,40.0,29.19,WSW,247,1.9,-999.0,80,0.00,,,0.00,Rainwise IP-100,2013-05-15 09:41:00,
2013-05-15 02:46:00,45.7,40.0,29.19,WSW,247,1.2,-999.0,80,0.00,,,0.00,Rainwise IP-100,2013-05-15 09:46:00,
2013-05-15 02:51:00,45.7,40.0,29.19,WSW,247,1.6,-999.0,80,0.00,,,0.00,Rainwise IP-100,2013-05-15 09:51:00,
2013-05-15 02:56:00,45.6,40.0,29.19,WSW,247,0.0,-999.0,81,0.00,,,0.00,Rainwise IP-100,2013-05-15 09:56:00,
2013-05-15 03:01:00,45.5,40.0,29.20,WSW,247,0.0,-999.0,82,0.00,,,0.00,Rainwise IP-100,2013-05-15 10:01:00,
2013-05-15 03:06:00,45.2,40.0,29.19,WSW,247,1.6,-999.0,82,0.00,,,0.00,Rainwise IP-100,2013-05-15 10:06:00,
2013-05-15 03:11:00,45.1,40.0,29.19,WSW,247,1.6,-999.0,82,0.00,,,0.00,Rainwise IP-100,2013-05-15 10:11:00,
2013-05-15 03:16:00,44.9,40.0,29.19,WSW,247,1.6,-999.0,82,0.00,,,0.00,Rainwise IP-100,2013-05-15 10:16:00,
2013-05-15 03:21:00,44.8,40.0,29.19,WSW,247,0.0,-999.0,82,0.00,,,0.00,Rainwise IP-100,2013-05-15 10:21:00,
2013-05-15 03:26:00,44.8,40.0,29.19,WSW,247,0.0,-999.0,82,0.00,,,0.00,Rainwise IP-100,2013-05-15 10:26:00,
2013-05-15 03:31:00,44.5,40.0,29.20,WSW,247,1.9,-999.0,82,0.00,,,0.00,Rainwise IP-100,2013-05-15 10:31:00,
2013-05-15 03:36:00,44.1,39.0,29.20,WSW,247,1.2,-999.0,82,0.00,,,0.00,Rainwise IP-100,2013-05-15 10:36:00,
2013-05-15 03:41:00,44.0,39.0,29.19,WSW,247,0.0,-999.0,83,0.00,,,0.00,Rainwise IP-100,2013-05-15 10:41:00,
2013-05-15 03:42:00,44.0,39.0,29.19,WSW,247,0.0,-999.0,83,0.00,,,0.00,Rainwise IP-100,2013-05-15 10:42:00,
2013-05-15 03:47:00,44.0,39.0,29.20,WSW,247,0.0,-999.0,83,0.00,,,0.00,Rainwise IP-100,2013-05-15 10:47:00,
2013-05-15 03:52:00,44.0,39.0,29.20,WSW,247,1.4,-999.0,83,0.00,,,0.00,Rainwise IP-100,2013-05-15 10:52:00,
2013-05-15 03:57:00,44.0,39.0,29.20,WSW,247,0.0,-999.0,83,0.00,,,0.00,Rainwise IP-100,2013-05-15 10:57:00,
2013-05-15 04:02:00,44.0,39.0,29.20,WSW,247,0.0,-999.0,84,0.00,,,0.00,Rainwise IP-100,2013-05-15 11:02:00,
2013-05-15 04:07:00,43.9,39.0,29.20,WSW,247,0.0,-999.0,84,0.00,,,0.00,Rainwise IP-100,2013-05-15 11:07:00,
2013-05-15 04:12:00,43.8,40.0,29.20,WSW,247,1.6,-999.0,85,0.00,,,0.00,Rainwise IP-100,2013-05-15 11:12:00,
2013-05-15 04:17:00,43.6,39.0,29.20,WSW,247,1.2,-999.0,84,0.00,,,0.00,Rainwise IP-100,2013-05-15 11:17:00,
2013-05-15 04:22:00,43.3,39.0,29.20,WSW,247,0.0,-999.0,84,0.00,,,0.00,Rainwise IP-100,2013-05-15 11:22:00,
2013-05-15 04:27:00,43.2,39.0,29.20,WSW,247,1.4,-999.0,85,0.00,,,0.00,Rainwise IP-100,2013-05-15 11:27:00,
2013-05-15 04:32:00,43.0,39.0,29.20,WSW,247,1.9,-999.0,85,0.00,,,0.00,Rainwise IP-100,2013-05-15 11:32:00,
2013-05-15 04:37:00,42.8,39.0,29.20,WSW,247,0.0,-999.0,86,0.00,,,0.00,Rainwise IP-100,2013-05-15 11:37:00,
2013-05-15 04:42:00,42.7,39.0,29.20,WSW,247,0.0,-999.0,86,0.00,,,0.00,Rainwise IP-100,2013-05-15 11:42:00,
2013-05-15 04:47:00,42.8,39.0,29.20,WSW,247,0.0,-999.0,86,0.00,,,0.00,Rainwise IP-100,2013-05-15 11:47:00,
2013-05-15 04:52:00,42.5,39.0,29.20,WSW,247,0.0,-999.0,86,0.00,,,0.00,Rainwise IP-100,2013-05-15 11:52:00,
2013-05-15 04:57:00,42.2,38.0,29.20,WSW,247,1.9,-999.0,86,0.00,,,0.00,Rainwise IP-100,2013-05-15 11:57:00,
2013-05-15 05:02:00,42.1,38.0,29.20,WSW,247,0.0,-999.0,87,0.00,,,0.00,Rainwise IP-100,2013-05-15 12:02:00,
2013-05-15 05:07:00,42.2,38.0,29.20,WSW,247,0.0,-999.0,87,0.00,,,0.00,Rainwise IP-100,2013-05-15 12:07:00,
2013-05-15 05:12:00,42.2,38.0,29.20,WSW,247,0.0,-999.0,87,0.00,,,0.00,Rainwise IP-100,2013-05-15 12:12:00,
2013-05-15 05:17:00,41.9,38.0,29.20,WSW,247,1.2,-999.0,87,0.00,,,0.00,Rainwise IP-100,2013-05-15 12:17:00,
2013-05-15 05:22:00,41.8,38.0,29.20,WSW,247,1.4,-999.0,87,0.00,,,0.00,Rainwise IP-100,2013-05-15 12:22:00,
2013-05-15 05:27:00,41.7,38.0,29.20,WSW,247,0.0,-999.0,87,0.00,,,0.00,Rainwise IP-100,2013-05-15 12:27:00,
2013-05-15 05:32:00,41.8,39.0,29.21,WSW,247,0.0,-999.0,88,0.00,,,0.00,Rainwise IP-100,2013-05-15 12:32:00,
2013-05-15 05:37:00,42.0,39.0,29.21,WSW,247,0.0,-999.0,89,0.00,,,0.00,Rainwise IP-100,2013-05-15 12:37:00,
2013-05-15 05:42:00,42.1,39.0,29.21,WSW,247,0.0,-999.0,89,0.00,,,0.00,Rainwise IP-100,2013-05-15 12:42:00,
2013-05-15 05:47:00,41.8,39.0,29.21,WSW,247,0.0,-999.0,89,0.00,,,0.00,Rainwise IP-100,2013-05-15 12:47:00,
2013-05-15 05:52:00,41.6,39.0,29.21,WSW,247,1.4,-999.0,89,0.00,,,0.00,Rainwise IP-100,2013-05-15 12:52:00,
2013-05-15 05:57:00,41.7,39.0,29.21,WSW,247,0.0,-999.0,89,0.00,,,0.00,Rainwise IP-100,2013-05-15 12:57:00,
2013-05-15 06:02:00,41.8,39.0,29.21,WSW,247,0.0,-999.0,89,0.00,,,0.00,Rainwise IP-100,2013-05-15 13:02:00,
2013-05-15 06:07:00,41.8,39.0,29.21,WSW,247,1.4,-999.0,89,0.00,,,0.00,Rainwise IP-100,2013-05-15 13:07:00,
2013-05-15 06:12:00,41.6,39.0,29.21,WSW,247,1.4,-999.0,89,0.00,,,0.00,Rainwise IP-100,2013-05-15 13:12:00,
2013-05-15 06:17:00,41.7,39.0,29.22,WSW,247,0.0,-999.0,90,0.00,,,0.00,Rainwise IP-100,2013-05-15 13:17:00,
2013-05-15 06:22:00,42.0,39.0,29.22,WSW,247,0.0,-999.0,90,0.00,,,0.00,Rainwise IP-100,2013-05-15 13:22:00,
2013-05-15 06:27:00,42.1,39.0,29.22,WSW,247,0.0,-999.0,90,0.00,,,0.00,Rainwise IP-100,2013-05-15 13:27:00,
2013-05-15 06:32:00,42.2,39.0,29.23,WSW,247,0.0,-999.0,90,0.00,,,0.00,Rainwise IP-100,2013-05-15 13:32:00,
2013-05-15 06:37:00,42.4,39.0,29.23,WSW,247,0.0,-999.0,90,0.00,,,0.00,Rainwise IP-100,2013-05-15 13:37:00,
2013-05-15 06:42:00,42.7,40.0,29.23,WSW,247,0.0,-999.0,90,0.00,,,0.00,Rainwise IP-100,2013-05-15 13:42:00,
2013-05-15 06:47:00,43.3,40.0,29.23,WSW,247,0.0,-999.0,90,0.00,,,0.00,Rainwise IP-100,2013-05-15 13:47:00,
2013-05-15 06:52:00,43.7,41.0,29.23,WSW,247,0.0,-999.0,90,0.00,,,0.00,Rainwise IP-100,2013-05-15 13:52:00,
2013-05-15 06:57:00,44.0,41.0,29.23,WSW,247,0.0,-999.0,90,0.00,,,0.00,Rainwise IP-100,2013-05-15 13:57:00,
2013-05-15 07:02:00,45.1,42.0,29.23,WSW,247,0.0,-999.0,91,0.00,,,0.00,Rainwise IP-100,2013-05-15 14:02:00,
2013-05-15 07:07:00,46.1,43.0,29.24,WSW,247,0.0,-999.0,90,0.00,,,0.00,Rainwise IP-100,2013-05-15 14:07:00,
2013-05-15 07:12:00,46.3,42.0,29.24,WSW,247,0.0,-999.0,88,0.00,,,0.00,Rainwise IP-100,2013-05-15 14:12:00,
2013-05-15 07:17:00,46.6,43.0,29.23,WSW,247,0.0,-999.0,88,0.00,,,0.00,Rainwise IP-100,2013-05-15 14:17:00,
2013-05-15 07:22:00,47.7,44.0,29.24,WSW,247,0.0,-999.0,88,0.00,,,0.00,Rainwise IP-100,2013-05-15 14:22:00,
2013-05-15 07:27:00,49.2,45.0,29.24,WSW,247,0.0,-999.0,86,0.00,,,0.00,Rainwise IP-100,2013-05-15 14:27:00,
2013-05-15 07:32:00,49.9,46.0,29.24,WSW,247,0.0,-999.0,85,0.00,,,0.00,Rainwise IP-100,2013-05-15 14:32:00,
2013-05-15 07:37:00,50.8,47.0,29.24,WSW,247,0.0,-999.0,84,0.00,,,0.00,Rainwise IP-100,2013-05-15 14:37:00,
2013-05-15 07:42:00,52.1,47.0,29.25,East,90,0.0,-999.0,81,0.00,,,0.00,Rainwise IP-100,2013-05-15 14:42:00,
2013-05-15 07:47:00,53.2,45.0,29.25,South,180,0.0,-999.0,76,0.00,,,0.00,Rainwise IP-100,2013-05-15 14:47:00,
2013-05-15 07:52:00,53.6,45.0,29.25,SSE,157,3.0,-999.0,74,0.00,,,0.00,Rainwise IP-100,2013-05-15 14:52:00,
2013-05-15 07:57:00,53.5,45.0,29.25,ESE,112,2.6,-999.0,72,0.00,,,0.00,Rainwise IP-100,2013-05-15 14:57:00,
2013-05-15 08:02:00,53.3,45.0,29.25,East,90,1.9,-999.0,72,0.00,,,0.00,Rainwise IP-100,2013-05-15 15:02:00,
2013-05-15 08:07:00,53.8,45.0,29.25,ESE,112,1.2,-999.0,71,0.00,,,0.00,Rainwise IP-100,2013-05-15 15:07:00,
2013-05-15 08:12:00,54.6,45.0,29.25,SE,135,0.0,-999.0,70,0.00,,,0.00,Rainwise IP-100,2013-05-15 15:12:00,
2013-05-15 08:17:00,55.0,45.0,29.25,SE,135,1.4,-999.0,69,0.00,,,0.00,Rainwise IP-100,2013-05-15 15:17:00,
2013-05-15 08:22:00,55.7,46.0,29.25,East,90,0.0,-999.0,68,0.00,,,0.00,Rainwise IP-100,2013-05-15 15:22:00,
2013-05-15 08:27:00,56.2,45.0,29.25,ESE,112,2.1,-999.0,67,0.00,,,0.00,Rainwise IP-100,2013-05-15 15:27:00,
2013-05-15 08:32:00,56.2,44.0,29.25,East,90,2.6,-999.0,65,0.00,,,0.00,Rainwise IP-100,2013-05-15 15:32:00,
2013-05-15 08:37:00,57.0,45.0,29.25,ENE,67,0.0,-999.0,64,0.00,,,0.00,Rainwise IP-100,2013-05-15 15:37:00,
2013-05-15 08:42:00,58.0,46.0,29.25,East,90,3.3,-999.0,63,0.00,,,0.00,Rainwise IP-100,2013-05-15 15:42:00,
2013-05-15 08:47:00,58.7,46.0,29.25,South,180,1.9,-999.0,61,0.00,,,0.00,Rainwise IP-100,2013-05-15 15:47:00,
2013-05-15 08:52:00,59.0,45.0,29.25,SSE,157,0.0,-999.0,60,0.00,,,0.00,Rainwise IP-100,2013-05-15 15:52:00,
2013-05-15 08:57:00,59.6,45.0,29.25,ESE,112,1.4,-999.0,59,0.00,,,0.00,Rainwise IP-100,2013-05-15 15:57:00,
2013-05-15 09:02:00,60.1,45.0,29.25,ESE,112,0.0,-999.0,58,0.00,,,0.00,Rainwise IP-100,2013-05-15 16:02:00,
2013-05-15 09:07:00,61.2,46.0,29.25,WNW,292,1.2,-999.0,57,0.00,,,0.00,Rainwise IP-100,2013-05-15 16:07:00,
2013-05-15 09:12:00,62.3,46.0,29.25,SSE,157,0.0,-999.0,55,0.00,,,0.00,Rainwise IP-100,2013-05-15 16:12:00,
2013-05-15 09:17:00,63.0,46.0,29.25,SSE,157,1.9,-999.0,53,0.00,,,0.00,Rainwise IP-100,2013-05-15 16:17:00,
2013-05-15 09:22:00,63.9,46.0,29.25,SE,135,2.1,-999.0,52,0.00,,,0.00,Rainwise IP-100,2013-05-15 16:22:00,
2013-05-15 09:27:00,64.4,46.0,29.25,ESE,112,4.4,-999.0,51,0.00,,,0.00,Rainwise IP-100,2013-05-15 16:27:00,
2013-05-15 09:32:00,64.0,46.0,29.25,SSE,157,3.7,-999.0,52,0.00,,,0.00,Rainwise IP-100,2013-05-15 16:32:00,
2013-05-15 09:37:00,64.3,47.0,29.25,North,360,2.8,-999.0,52,0.00,,,0.00,Rainwise IP-100,2013-05-15 16:37:00,
2013-05-15 09:42:00,65.3,47.5,29.25,South,180,0.0,-999.0,52,0.00,,,0.00,Rainwise IP-100,2013-05-15 16:42:00,
2013-05-15 09:47:00,65.3,47.0,29.25,SSE,157,0.0,-999.0,51,0.00,,,0.00,Rainwise IP-100,2013-05-15 16:47:00,
2013-05-15 09:52:00,65.2,47.0,29.25,ESE,112,0.0,-999.0,51,0.00,,,0.00,Rainwise IP-100,2013-05-15 16:52:00,
2013-05-15 09:57:00,65.0,47.0,29.25,SSW,202,0.0,-999.0,51,0.00,,,0.00,Rainwise IP-100,2013-05-15 16:57:00,
2013-05-15 10:02:00,65.7,47.0,29.25,SSE,157,2.1,-999.0,50,0.00,,,0.00,Rainwise IP-100,2013-05-15 17:02:00,
2013-05-15 10:07:00,66.8,47.5,29.25,SSE,157,1.4,-999.0,50,0.00,,,0.00,Rainwise IP-100,2013-05-15 17:07:00,
2013-05-15 10:12:00,67.3,47.5,29.24,SSW,202,0.0,-999.0,49,0.00,,,0.00,Rainwise IP-100,2013-05-15 17:12:00,
2013-05-15 10:17:00,67.9,47.5,29.25,SSE,157,0.0,-999.0,48,0.00,,,0.00,Rainwise IP-100,2013-05-15 17:17:00,
2013-05-15 10:22:00,68.6,48.0,29.24,SSE,157,1.4,-999.0,48,0.00,,,0.00,Rainwise IP-100,2013-05-15 17:22:00,
2013-05-15 10:27:00,69.5,48.0,29.25,SSE,157,3.3,-999.0,46,0.00,,,0.00,Rainwise IP-100,2013-05-15 17:27:00,
2013-05-15 10:32:00,70.2,47.5,29.24,SW,225,0.0,-999.0,45,0.00,,,0.00,Rainwise IP-100,2013-05-15 17:32:00,
2013-05-15 10:37:00,70.4,47.5,29.24,ENE,67,1.4,-999.0,44,0.00,,,0.00,Rainwise IP-100,2013-05-15 17:37:00,
2013-05-15 10:42:00,70.5,47.5,29.25,ESE,112,4.2,-999.0,44,0.00,,,0.00,Rainwise IP-100,2013-05-15 17:42:00,
2013-05-15 10:47:00,70.1,47.5,29.24,ESE,112,2.8,-999.0,44,0.00,,,0.00,Rainwise IP-100,2013-05-15 17:47:00,
2013-05-15 10:52:00,69.9,47.0,29.24,East,90,0.0,-999.0,43,0.00,,,0.00,Rainwise IP-100,2013-05-15 17:52:00,
2013-05-15 10:57:00,70.4,47.0,29.25,ESE,112,1.4,-999.0,43,0.00,,,0.00,Rainwise IP-100,2013-05-15 17:57:00,
2013-05-15 11:02:00,70.8,47.5,29.25,SSE,157,3.0,-999.0,43,0.00,,,0.00,Rainwise IP-100,2013-05-15 18:02:00,
2013-05-15 11:07:00,71.3,47.5,29.25,SSE,157,3.7,-999.0,43,0.00,,,0.00,Rainwise IP-100,2013-05-15 18:07:00,
2013-05-15 11:12:00,72.1,47.5,29.24,ESE,112,2.1,-999.0,42,0.00,,,0.00,Rainwise IP-100,2013-05-15 18:12:00,
2013-05-15 11:17:00,72.5,47.0,29.25,East,90,5.4,-999.0,40,0.00,,,0.00,Rainwise IP-100,2013-05-15 18:17:00,
2013-05-15 11:22:00,72.4,46.0,29.25,SSE,157,1.4,-999.0,39,0.00,,,0.00,Rainwise IP-100,2013-05-15 18:22:00,
2013-05-15 11:27:00,72.0,46.0,29.24,ESE,112,2.1,-999.0,39,0.00,,,0.00,Rainwise IP-100,2013-05-15 18:27:00,
2013-05-15 11:32:00,71.6,45.0,29.24,East,90,3.3,-999.0,39,0.00,,,0.00,Rainwise IP-100,2013-05-15 18:32:00,
2013-05-15 11:37:00,72.2,46.0,29.24,ENE,67,8.2,-999.0,39,0.00,,,0.00,Rainwise IP-100,2013-05-15 18:37:00,
2013-05-15 11:42:00,72.6,46.0,29.24,ESE,112,2.6,-999.0,38,0.00,,,0.00,Rainwise IP-100,2013-05-15 18:42:00,
2013-05-15 11:47:00,72.5,46.0,29.24,ESE,112,3.5,-999.0,38,0.00,,,0.00,Rainwise IP-100,2013-05-15 18:47:00,
2013-05-15 11:52:00,72.3,45.0,29.24,ENE,67,5.4,-999.0,38,0.00,,,0.00,Rainwise IP-100,2013-05-15 18:52:00,
2013-05-15 11:57:00,72.4,45.0,29.25,East,90,5.6,-999.0,38,0.00,,,0.00,Rainwise IP-100,2013-05-15 18:57:00,
2013-05-15 12:02:00,72.9,47.0,29.25,South,180,4.2,-999.0,39,0.00,,,0.00,Rainwise IP-100,2013-05-15 19:02:00,
2013-05-15 12:07:00,73.5,47.5,29.24,WSW,247,2.8,-999.0,39,0.00,,,0.00,Rainwise IP-100,2013-05-15 19:07:00,
2013-05-15 12:12:00,74.3,48.0,29.25,SSE,157,5.8,-999.0,39,0.00,,,0.00,Rainwise IP-100,2013-05-15 19:12:00,
2013-05-15 12:17:00,74.7,48.0,29.24,SSE,157,6.8,-999.0,39,0.00,,,0.00,Rainwise IP-100,2013-05-15 19:17:00,
2013-05-15 12:22:00,74.7,48.0,29.24,SE,135,5.8,-999.0,39,0.00,,,0.00,Rainwise IP-100,2013-05-15 19:22:00,
2013-05-15 12:27:00,74.6,48.0,29.24,SSE,157,5.6,-999.0,39,0.00,,,0.00,Rainwise IP-100,2013-05-15 19:27:00,
2013-05-15 12:32:00,74.4,48.0,29.24,SSE,157,5.8,-999.0,39,0.00,,,0.00,Rainwise IP-100,2013-05-15 19:32:00,
2013-05-15 12:37:00,74.2,47.5,29.24,ESE,112,5.8,-999.0,38,0.00,,,0.00,Rainwise IP-100,2013-05-15 19:37:00,
2013-05-15 12:42:00,74.2,47.5,29.24,SSW,202,4.0,-999.0,38,0.00,,,0.00,Rainwise IP-100,2013-05-15 19:42:00,
2013-05-15 12:47:00,74.3,47.5,29.23,SSE,157,4.4,-999.0,38,0.00,,,0.00,Rainwise IP-100,2013-05-15 19:47:00,
2013-05-15 12:52:00,74.3,47.5,29.24,SSE,157,4.4,-999.0,38,0.00,,,0.00,Rainwise IP-100,2013-05-15 19:52:00,
2013-05-15 12:57:00,74.9,47.5,29.23,SSE,157,4.7,-999.0,38,0.00,,,0.00,Rainwise IP-100,2013-05-15 19:57:00,
2013-05-15 13:02:00,75.5,47.5,29.24,WSW,247,6.1,-999.0,37,0.00,,,0.00,Rainwise IP-100,2013-05-15 20:02:00,
2013-05-15 13:07:00,75.6,47.5,29.23,SSW,202,1.4,-999.0,37,0.00,,,0.00,Rainwise IP-100,2013-05-15 20:07:00,
2013-05-15 13:12:00,75.6,47.0,29.24,SSE,157,3.5,-999.0,36,0.00,,,0.00,Rainwise IP-100,2013-05-15 20:12:00,
2013-05-15 13:17:00,75.7,47.0,29.23,SSE,157,7.7,-999.0,36,0.00,,,0.00,Rainwise IP-100,2013-05-15 20:17:00,
2013-05-15 13:22:00,75.9,47.0,29.23,South,180,5.1,-999.0,36,0.00,,,0.00,Rainwise IP-100,2013-05-15 20:22:00,
2013-05-15 13:27:00,76.2,47.5,29.23,SSE,157,7.5,-999.0,36,0.00,,,0.00,Rainwise IP-100,2013-05-15 20:27:00,
2013-05-15 13:32:00,76.3,47.0,29.23,SE,135,9.3,-999.0,35,0.00,,,0.00,Rainwise IP-100,2013-05-15 20:32:00,
2013-05-15 13:37:00,76.5,47.0,29.23,SSW,202,2.8,-999.0,35,0.00,,,0.00,Rainwise IP-100,2013-05-15 20:37:00,
2013-05-15 13:42:00,77.2,47.0,29.23,WSW,247,3.3,-999.0,34,0.00,,,0.00,Rainwise IP-100,2013-05-15 20:42:00,
2013-05-15 13:47:00,77.9,47.5,29.23,SW,225,8.9,-999.0,34,0.00,,,0.00,Rainwise IP-100,2013-05-15 20:47:00,
2013-05-15 13:52:00,78.4,47.0,29.23,SE,135,2.6,-999.0,33,0.00,,,0.00,Rainwise IP-100,2013-05-15 20:52:00,
2013-05-15 13:57:00,78.6,47.5,29.23,SSW,202,3.5,-999.0,33,0.00,,,0.00,Rainwise IP-100,2013-05-15 20:57:00,
2013-05-15 14:02:00,78.3,47.0,29.23,ESE,112,3.5,-999.0,33,0.00,,,0.00,Rainwise IP-100,2013-05-15 21:02:00,
2013-05-15 14:07:00,77.5,47.5,29.23,SSE,157,11.2,-999.0,34,0.00,,,0.00,Rainwise IP-100,2013-05-15 21:07:00,
2013-05-15 14:12:00,77.2,47.0,29.23,SSE,157,7.2,-999.0,34,0.00,,,0.00,Rainwise IP-100,2013-05-15 21:12:00,
2013-05-15 14:17:00,77.7,47.5,29.23,SSE,157,6.1,-999.0,34,0.00,,,0.00,Rainwise IP-100,2013-05-15 21:17:00,
2013-05-15 14:22:00,78.3,47.5,29.23,SW,225,7.9,-999.0,34,0.00,,,0.00,Rainwise IP-100,2013-05-15 21:22:00,
2013-05-15 14:27:00,78.7,47.5,29.23,SSE,157,7.7,-999.0,33,0.00,,,0.00,Rainwise IP-100,2013-05-15 21:27:00,
2013-05-15 14:32:00,78.6,47.5,29.22,ESE,112,9.8,-999.0,33,0.00,,,0.00,Rainwise IP-100,2013-05-15 21:32:00,
2013-05-15 14:37:00,78.0,47.0,29.22,SSE,157,5.6,-999.0,33,0.00,,,0.00,Rainwise IP-100,2013-05-15 21:37:00,
2013-05-15 14:42:00,77.7,47.5,29.22,SSW,202,3.0,-999.0,34,0.00,,,0.00,Rainwise IP-100,2013-05-15 21:42:00,
2013-05-15 14:47:00,78.1,47.5,29.22,WSW,247,4.4,-999.0,34,0.00,,,0.00,Rainwise IP-100,2013-05-15 21:47:00,
2013-05-15 14:52:00,79.1,48.0,29.22,WSW,247,3.0,-999.0,34,0.00,,,0.00,Rainwise IP-100,2013-05-15 21:52:00,
2013-05-15 14:57:00,79.9,48.0,29.22,SSE,157,4.0,-999.0,33,0.00,,,0.00,Rainwise IP-100,2013-05-15 21:57:00,
2013-05-15 15:02:00,79.6,47.5,29.22,South,180,7.0,-999.0,32,0.00,,,0.00,Rainwise IP-100,2013-05-15 22:02:00,
2013-05-15 15:07:00,79.1,47.0,29.21,SSE,157,7.9,-999.0,32,0.00,,,0.00,Rainwise IP-100,2013-05-15 22:07:00,
2013-05-15 15:12:00,78.9,47.0,29.21,South,180,5.1,-999.0,32,0.00,,,0.00,Rainwise IP-100,2013-05-15 22:12:00,
2013-05-15 15:17:00,78.8,47.5,29.21,SSE,157,7.9,-999.0,33,0.00,,,0.00,Rainwise IP-100,2013-05-15 22:17:00,
2013-05-15 15:22:00,79.4,47.0,29.21,SSW,202,10.0,-999.0,32,0.00,,,0.00,Rainwise IP-100,2013-05-15 22:22:00,
2013-05-15 15:27:00,80.0,47.0,29.21,SSW,202,8.9,-999.0,31,0.00,,,0.00,Rainwise IP-100,2013-05-15 22:27:00,
2013-05-15 15:32:00,80.4,47.5,29.21,WSW,247,3.5,-999.0,31,0.00,,,0.00,Rainwise IP-100,2013-05-15 22:32:00,
2013-05-15 15:37:00,80.8,47.5,29.20,WSW,247,5.4,-999.0,31,0.00,,,0.00,Rainwise IP-100,2013-05-15 22:37:00,
2013-05-15 15:42:00,81.5,48.0,29.21,SSW,202,7.5,-999.0,31,0.00,,,0.00,Rainwise IP-100,2013-05-15 22:42:00,
2013-05-15 15:47:00,81.9,47.5,29.20,WSW,247,8.2,-999.0,30,0.00,,,0.00,Rainwise IP-100,2013-05-15 22:47:00,
2013-05-15 15:52:00,82.1,47.5,29.21,West,270,3.0,-999.0,30,0.00,,,0.00,Rainwise IP-100,2013-05-15 22:52:00,
2013-05-15 15:57:00,81.9,47.0,29.21,WNW,292,5.8,-999.0,29,0.00,,,0.00,Rainwise IP-100,2013-05-15 22:57:00,
2013-05-15 16:02:00,81.4,46.0,29.20,SW,225,1.6,-999.0,29,0.00,,,0.00,Rainwise IP-100,2013-05-15 23:02:00,
2013-05-15 16:07:00,81.0,47.0,29.20,WSW,247,5.1,-999.0,30,0.00,,,0.00,Rainwise IP-100,2013-05-15 23:07:00,
2013-05-15 16:12:00,80.6,47.0,29.20,SW,225,8.9,-999.0,30,0.00,,,0.00,Rainwise IP-100,2013-05-15 23:12:00,
2013-05-15 16:17:00,80.0,46.0,29.20,WSW,247,3.5,-999.0,30,0.00,,,0.00,Rainwise IP-100,2013-05-15 23:17:00,
2013-05-15 16:22:00,79.8,47.0,29.20,SSW,202,5.4,-999.0,31,0.00,,,0.00,Rainwise IP-100,2013-05-15 23:22:00,
2013-05-15 16:27:00,80.1,47.0,29.21,WSW,247,6.8,-999.0,31,0.00,,,0.00,Rainwise IP-100,2013-05-15 23:27:00,
2013-05-15 16:32:00,80.6,47.0,29.20,SW,225,9.1,-999.0,30,0.00,,,0.00,Rainwise IP-100,2013-05-15 23:32:00,
2013-05-15 16:37:00,80.6,47.0,29.20,SW,225,3.7,-999.0,30,0.00,,,0.00,Rainwise IP-100,2013-05-15 23:37:00,
2013-05-15 16:42:00,81.0,47.0,29.20,WSW,247,6.3,-999.0,30,0.00,,,0.00,Rainwise IP-100,2013-05-15 23:42:00,
2013-05-15 16:47:00,81.6,47.5,29.20,WNW,292,2.6,-999.0,30,0.00,,,0.00,Rainwise IP-100,2013-05-15 23:47:00,
2013-05-15 16:52:00,81.8,47.0,29.20,WSW,247,2.3,-999.0,29,0.00,,,0.00,Rainwise IP-100,2013-05-15 23:52:00,
2013-05-15 16:57:00,82.0,46.0,29.20,WSW,247,5.8,-999.0,28,0.00,,,0.00,Rainwise IP-100,2013-05-15 23:57:00,
2013-05-15 17:02:00,82.1,45.0,29.19,WSW,247,7.9,-999.0,27,0.00,,,0.00,Rainwise IP-100,2013-05-16 00:02:00,
2013-05-15 17:07:00,81.8,46.0,29.20,WSW,247,5.8,-999.0,28,0.00,,,0.00,Rainwise IP-100,2013-05-16 00:07:00,
2013-05-15 17:12:00,81.9,46.0,29.20,WSW,247,4.7,-999.0,28,0.00,,,0.00,Rainwise IP-100,2013-05-16 00:12:00,
2013-05-15 17:17:00,82.2,46.0,29.20,NNW,337,1.6,-999.0,28,0.00,,,0.00,Rainwise IP-100,2013-05-16 00:17:00,
2013-05-15 17:22:00,82.2,46.0,29.20,WSW,247,3.0,-999.0,28,0.00,,,0.00,Rainwise IP-100,2013-05-16 00:22:00,
2013-05-15 17:27:00,82.1,45.0,29.19,WNW,292,1.2,-999.0,27,0.00,,,0.00,Rainwise IP-100,2013-05-16 00:27:00,
2013-05-15 17:32:00,82.0,45.0,29.19,SW,225,7.2,-999.0,27,0.00,,,0.00,Rainwise IP-100,2013-05-16 00:32:00,
2013-05-15 17:37:00,81.8,46.0,29.19,WSW,247,2.6,-999.0,28,0.00,,,0.00,Rainwise IP-100,2013-05-16 00:37:00,
2013-05-15 17:42:00,81.6,46.0,29.19,West,270,0.0,-999.0,28,0.00,,,0.00,Rainwise IP-100,2013-05-16 00:42:00,
2013-05-15 17:47:00,81.7,46.0,29.20,WSW,247,1.2,-999.0,28,0.00,,,0.00,Rainwise IP-100,2013-05-16 00:47:00,
2013-05-15 17:52:00,81.9,46.0,29.19,WSW,247,1.6,-999.0,28,0.00,,,0.00,Rainwise IP-100,2013-05-16 00:52:00,
2013-05-15 17:57:00,81.9,46.0,29.19,WSW,247,2.1,-999.0,28,0.00,,,0.00,Rainwise IP-100,2013-05-16 00:57:00,
2013-05-15 18:02:00,81.6,46.0,29.19,WSW,247,2.8,-999.0,28,0.00,,,0.00,Rainwise IP-100,2013-05-16 01:02:00,
2013-05-15 18:07:00,81.2,45.0,29.20,WNW,292,3.7,-999.0,28,0.00,,,0.00,Rainwise IP-100,2013-05-16 01:07:00,
2013-05-15 18:12:00,80.7,46.0,29.20,West,270,2.6,-999.0,29,0.00,,,0.00,Rainwise IP-100,2013-05-16 01:12:00,
2013-05-15 18:17:00,80.4,45.0,29.20,SSW,202,3.3,-999.0,29,0.00,,,0.00,Rainwise IP-100,2013-05-16 01:17:00,
2013-05-15 18:22:00,80.0,46.0,29.20,WSW,247,7.0,-999.0,30,0.00,,,0.00,Rainwise IP-100,2013-05-16 01:22:00,
2013-05-15 18:27:00,79.3,46.0,29.19,WSW,247,2.6,-999.0,31,0.00,,,0.00,Rainwise IP-100,2013-05-16 01:27:00,
2013-05-15 18:32:00,78.9,46.0,29.19,SSW,202,3.3,-999.0,31,0.00,,,0.00,Rainwise IP-100,2013-05-16 01:32:00,
2013-05-15 18:37:00,78.5,47.0,29.19,WSW,247,3.7,-999.0,32,0.00,,,0.00,Rainwise IP-100,2013-05-16 01:37:00,
2013-05-15 18:42:00,77.8,46.0,29.20,WSW,247,0.0,-999.0,32,0.00,,,0.00,Rainwise IP-100,2013-05-16 01:42:00,
2013-05-15 18:47:00,77.4,46.0,29.19,West,270,0.0,-999.0,33,0.00,,,0.00,Rainwise IP-100,2013-05-16 01:47:00,
2013-05-15 18:52:00,77.0,46.0,29.19,WNW,292,2.1,-999.0,33,0.00,,,0.00,Rainwise IP-100,2013-05-16 01:52:00,
2013-05-15 18:57:00,76.9,47.0,29.20,WSW,247,6.3,-999.0,34,0.00,,,0.00,Rainwise IP-100,2013-05-16 01:57:00,
2013-05-15 19:02:00,77.0,46.0,29.19,WSW,247,1.4,-999.0,33,0.00,,,0.00,Rainwise IP-100,2013-05-16 02:02:00,
2013-05-15 19:07:00,76.7,47.0,29.19,WSW,247,4.9,-999.0,34,0.00,,,0.00,Rainwise IP-100,2013-05-16 02:07:00,
2013-05-15 19:12:00,76.6,46.0,29.19,SW,225,4.9,-999.0,34,0.00,,,0.00,Rainwise IP-100,2013-05-16 02:12:00,
2013-05-15 19:17:00,76.4,46.0,29.19,WSW,247,1.9,-999.0,34,0.00,,,0.00,Rainwise IP-100,2013-05-16 02:17:00,
2013-05-15 19:22:00,75.7,45.0,29.19,WSW,247,2.3,-999.0,34,0.00,,,0.00,Rainwise IP-100,2013-05-16 02:22:00,
2013-05-15 19:27:00,75.1,45.0,29.19,NNW,337,0.0,-999.0,34,0.00,,,0.00,Rainwise IP-100,2013-05-16 02:27:00,
2013-05-15 19:32:00,74.4,45.0,29.19,NNW,337,0.0,-999.0,35,0.00,,,0.00,Rainwise IP-100,2013-05-16 02:32:00,
2013-05-15 19:37:00,73.4,45.0,29.19,SE,135,0.0,-999.0,36,0.00,,,0.00,Rainwise IP-100,2013-05-16 02:37:00,
2013-05-15 19:42:00,72.6,45.0,29.19,ESE,112,3.0,-999.0,37,0.00,,,0.00,Rainwise IP-100,2013-05-16 02:42:00,
2013-05-15 19:47:00,72.4,45.0,29.20,SSW,202,1.6,-999.0,37,0.00,,,0.00,Rainwise IP-100,2013-05-16 02:47:00,
2013-05-15 19:52:00,72.1,44.0,29.20,ESE,112,0.0,-999.0,37,0.00,,,0.00,Rainwise IP-100,2013-05-16 02:52:00,
2013-05-15 19:57:00,71.5,45.0,29.19,ESE,112,0.0,-999.0,39,0.00,,,0.00,Rainwise IP-100,2013-05-16 02:57:00,
2013-05-15 20:02:00,70.7,45.0,29.20,East,90,2.3,-999.0,40,0.00,,,0.00,Rainwise IP-100,2013-05-16 03:02:00,
2013-05-15 20:07:00,70.3,45.0,29.19,NNE,22,1.2,-999.0,40,0.00,,,0.00,Rainwise IP-100,2013-05-16 03:07:00,
2013-05-15 20:12:00,70.7,45.0,29.20,ESE,112,2.1,-999.0,40,0.00,,,0.00,Rainwise IP-100,2013-05-16 03:12:00,
2013-05-15 20:17:00,70.7,44.0,29.20,SSE,157,2.8,-999.0,39,0.00,,,0.00,Rainwise IP-100,2013-05-16 03:17:00,
2013-05-15 20:22:00,69.9,45.0,29.20,SE,135,0.0,-999.0,40,0.00,,,0.00,Rainwise IP-100,2013-05-16 03:22:00,
2013-05-15 20:27:00,69.0,45.0,29.20,SSW,202,0.0,-999.0,42,0.00,,,0.00,Rainwise IP-100,2013-05-16 03:27:00,
2013-05-15 20:32:00,68.1,45.0,29.20,SSW,202,0.0,-999.0,44,0.00,,,0.00,Rainwise IP-100,2013-05-16 03:32:00,
2013-05-15 20:37:00,67.1,45.0,29.20,SE,135,0.0,-999.0,45,0.00,,,0.00,Rainwise IP-100,2013-05-16 03:37:00,
2013-05-15 20:42:00,66.0,44.0,29.20,SE,135,0.0,-999.0,46,0.00,,,0.00,Rainwise IP-100,2013-05-16 03:42:00,
2013-05-15 20:47:00,65.6,45.0,29.21,SSE,157,1.6,-999.0,47,0.00,,,0.00,Rainwise IP-100,2013-05-16 03:47:00,
2013-05-15 20:52:00,65.4,44.0,29.21,SSW,202,3.7,-999.0,46,0.00,,,0.00,Rainwise IP-100,2013-05-16 03:52:00,
2013-05-15 20:57:00,65.3,44.0,29.21,SW,225,2.1,-999.0,46,0.00,,,0.00,Rainwise IP-100,2013-05-16 03:57:00,
2013-05-15 21:01:00,65.2,44.0,29.21,SW,225,0.0,-999.0,46,0.00,,,0.00,Rainwise IP-100,2013-05-16 04:01:00,
2013-05-15 21:06:00,65.1,44.0,29.21,SW,225,0.0,-999.0,47,0.00,,,0.00,Rainwise IP-100,2013-05-16 04:06:00,
2013-05-15 21:11:00,64.6,44.0,29.22,SW,225,1.2,-999.0,48,0.00,,,0.00,Rainwise IP-100,2013-05-16 04:11:00,
2013-05-15 21:16:00,63.5,44.0,29.22,SW,225,0.0,-999.0,49,0.00,,,0.00,Rainwise IP-100,2013-05-16 04:16:00,
2013-05-15 21:21:00,62.6,44.0,29.22,SW,225,0.0,-999.0,51,0.00,,,0.00,Rainwise IP-100,2013-05-16 04:21:00,
2013-05-15 21:26:00,62.0,45.0,29.22,SW,225,0.0,-999.0,53,0.00,,,0.00,Rainwise IP-100,2013-05-16 04:26:00,
2013-05-15 21:31:00,61.2,45.0,29.22,SW,225,0.0,-999.0,55,0.00,,,0.00,Rainwise IP-100,2013-05-16 04:31:00,
2013-05-15 21:36:00,60.7,45.0,29.22,SW,225,0.0,-999.0,56,0.00,,,0.00,Rainwise IP-100,2013-05-16 04:36:00,
2013-05-15 21:41:00,60.4,45.0,29.23,SW,225,0.0,-999.0,57,0.00,,,0.00,Rainwise IP-100,2013-05-16 04:41:00,
2013-05-15 21:46:00,60.1,45.0,29.22,SW,225,0.0,-999.0,58,0.00,,,0.00,Rainwise IP-100,2013-05-16 04:46:00,
2013-05-15 21:51:00,59.8,46.0,29.23,SW,225,0.0,-999.0,59,0.00,,,0.00,Rainwise IP-100,2013-05-16 04:51:00,
2013-05-15 21:56:00,59.5,46.0,29.22,SW,225,0.0,-999.0,60,0.00,,,0.00,Rainwise IP-100,2013-05-16 04:56:00,
2013-05-15 22:01:00,59.4,46.0,29.22,SW,225,1.2,-999.0,60,0.00,,,0.00,Rainwise IP-100,2013-05-16 05:01:00,
2013-05-15 22:06:00,59.2,45.0,29.22,SW,225,0.0,-999.0,59,0.00,,,0.00,Rainwise IP-100,2013-05-16 05:06:00,
2013-05-15 22:11:00,58.9,45.0,29.23,WSW,247,2.1,-999.0,59,0.00,,,0.00,Rainwise IP-100,2013-05-16 05:11:00,
2013-05-15 22:16:00,58.8,45.0,29.22,WSW,247,1.6,-999.0,60,0.00,,,0.00,Rainwise IP-100,2013-05-16 05:16:00,
2013-05-15 22:21:00,58.9,45.0,29.23,WSW,247,1.9,-999.0,60,0.00,,,0.00,Rainwise IP-100,2013-05-16 05:21:00,
2013-05-15 22:26:00,59.0,45.0,29.22,WSW,247,1.6,-999.0,60,0.00,,,0.00,Rainwise IP-100,2013-05-16 05:26:00,
2013-05-15 22:31:00,58.9,45.0,29.23,WSW,247,0.0,-999.0,60,0.00,,,0.00,Rainwise IP-100,2013-05-16 05:31:00,
2013-05-15 22:36:00,58.7,46.0,29.23,WSW,247,0.0,-999.0,61,0.00,,,0.00,Rainwise IP-100,2013-05-16 05:36:00,
2013-05-15 22:37:00,58.5,46.0,29.23,WSW,247,0.0,-999.0,61,0.00,,,0.00,Rainwise IP-100,2013-05-16 05:37:00,
2013-05-15 22:42:00,58.0,45.0,29.23,WSW,247,0.0,-999.0,62,0.00,,,0.00,Rainwise IP-100,2013-05-16 05:42:00,
2013-05-15 22:47:00,57.4,45.0,29.23,WSW,247,0.0,-999.0,63,0.00,,,0.00,Rainwise IP-100,2013-05-16 05:47:00,
2013-05-15 22:52:00,57.1,45.0,29.23,WSW,247,1.6,-999.0,64,0.00,,,0.00,Rainwise IP-100,2013-05-16 05:52:00,
2013-05-15 22:57:00,56.9,46.0,29.23,WSW,247,0.0,-999.0,65,0.00,,,0.00,Rainwise IP-100,2013-05-16 05:57:00,
2013-05-15 23:02:00,56.6,45.0,29.23,WSW,247,2.1,-999.0,65,0.00,,,0.00,Rainwise IP-100,2013-05-16 06:02:00,
2013-05-15 23:07:00,56.4,45.0,29.23,WSW,247,0.0,-999.0,66,0.00,,,0.00,Rainwise IP-100,2013-05-16 06:07:00,
2013-05-15 23:12:00,56.3,45.0,29.23,WSW,247,0.0,-999.0,66,0.00,,,0.00,Rainwise IP-100,2013-05-16 06:12:00,
2013-05-15 23:17:00,56.2,45.0,29.23,WSW,247,0.0,-999.0,67,0.00,,,0.00,Rainwise IP-100,2013-05-16 06:17:00,
2013-05-15 23:22:00,56.0,46.0,29.23,WSW,247,0.0,-999.0,68,0.00,,,0.00,Rainwise IP-100,2013-05-16 06:22:00,
2013-05-15 23:27:00,55.8,46.0,29.22,WSW,247,0.0,-999.0,68,0.00,,,0.00,Rainwise IP-100,2013-05-16 06:27:00,
2013-05-15 23:32:00,55.8,46.0,29.22,WSW,247,1.4,-999.0,68,0.00,,,0.00,Rainwise IP-100,2013-05-16 06:32:00,
2013-05-15 23:37:00,55.9,46.0,29.23,WSW,247,1.2,-999.0,69,0.00,,,0.00,Rainwise IP-100,2013-05-16 06:37:00,
2013-05-15 23:42:00,55.7,46.0,29.22,WSW,247,0.0,-999.0,69,0.00,,,0.00,Rainwise IP-100,2013-05-16 06:42:00,
2013-05-15 23:47:00,55.8,47.0,29.22,WSW,247,0.0,-999.0,70,0.00,,,0.00,Rainwise IP-100,2013-05-16 06:47:00,
2013-05-15 23:52:00,55.9,47.0,29.22,WSW,247,1.4,-999.0,71,0.00,,,0.00,Rainwise IP-100,2013-05-16 06:52:00,
2013-05-15 23:57:00,55.9,47.0,29.23,WSW,247,0.0,-999.0,71,0.00,,,0.00,Rainwise IP-100,2013-05-16 06:57:00,